Simultaneous Nadir Overpasses (SNOs) Predictions

Prediction of SNOs between GOES-14 and NOAA-20 Satellite Orbit:

Table of predicted SNOs for the next 14.0 days since TLE Epoch: 8/24/2018
Index Date Time (GOES-14) GOES-14 Lat,Lon NOAA-20 Lat,Lon Distance(km) Time Diff (sec)
1 08/25/2018 20:32:48 -0.38,-104.51 -1.03,-107.29 317.62 80
2 08/26/2018 20:16:44 -0.38,-104.50 -0.02,-102.76 197.70 80
3 08/28/2018 08:38:31 0.38,-104.34 1.24,-108.02 420.45 80
4 08/29/2018 08:17:07 0.38,-104.32 0.17,-103.50 93.65 80
5 08/30/2018 20:39:04 -0.38,-104.43 -1.38,-108.80 498.63 80
6 08/31/2018 20:22:59 -0.38,-104.42 -0.37,-104.27 16.96 80
7 09/03/2018 08:26:03 0.38,-104.26 0.53,-105.01 85.84 80
8 09/04/2018 08:04:39 0.37,-104.23 -0.48,-100.48 427.78 80
9 09/05/2018 20:26:35 -0.37,-104.33 -0.72,-105.78 166.36 80
10 09/06/2018 20:10:31 -0.36,-104.32 0.35,-101.27 348.65 80




NCC Satellite Simultaneous Nadir Overpasses (SNOs) Prediction Service
